Location: Peterborough
(44.3091°N, 78.3197°W)
Time: 00:56:08
(UTC-04:00)

Vanguard 2 - Pass Details

Date: 23 March 2023
Orbit: 552 x 2926 km, 32.9° (Epoch: 02 June)

Event Time Altitude Azimuth Distance (km) Brightness Sun altitude
Rises 06:07:59 0° 215° (SW) 6,758 11.9 -12.1°
Reaches altitude 10° 06:13:23 10° 206° (SSW) 5,728 11.6 -11.1°
Maximum altitude 06:27:06 30° 154° (SSE) 3,846 11.2 -8.7°
Drops below altitude 10° 06:37:55 10° 100° (E) 4,520 12.9 -6.8°
Sets 06:41:32 0° 90° (E) 5,193 14.2 -6.1°
